EZY19PW LEPA-EGGW

Flight info

Callsign EZY19PW
Flight time 2h 4m
Altitude 38000
Route GALAT N861 OLOXO DCT OKABI DCT TOU DCT TUPAR UN861 DIKRO UM185 TELTU
Aircraft A20N/M-SDE2E3FGHIRWXY/LB1

Departure

Time 2026-05-07 18:56
Airport Palma de Mallorca Airport (LEPA)

Arrival

Time 2026-05-07 21:00
Airport London Luton Airport (EGGW)
Time Latitude Longitude Altitude Speed Heading
2026-05-07 18:13 39.55066 2.73579 35 ft 0 kts 164°
2026-05-07 18:43 39.55083 2.73574 36 ft 4 kts 171°
2026-05-07 18:43 39.55108 2.73568 37 ft 2 kts 163°
2026-05-07 18:43 39.55130 2.73556 36 ft 4 kts 136°
2026-05-07 18:44 39.55141 2.73529 37 ft 4 kts 82°
2026-05-07 18:44 39.55132 2.73497 38 ft 3 kts 59°
2026-05-07 18:44 39.55119 2.73468 36 ft 4 kts 59°
2026-05-07 18:44 39.55116 2.73462 36 ft 0 kts 59°
2026-05-07 18:50 39.55118 2.73465 36 ft 2 kts 59°
2026-05-07 18:50 39.55130 2.73492 38 ft 5 kts 59°
2026-05-07 18:51 39.55150 2.73535 37 ft 6 kts 58°
2026-05-07 18:51 39.55177 2.73591 38 ft 8 kts 58°
2026-05-07 18:51 39.55169 2.73651 38 ft 6 kts 101°
2026-05-07 18:51 39.55181 2.73717 38 ft 9 kts 89°
2026-05-07 18:52 39.55132 2.73779 38 ft 12 kts 150°
2026-05-07 18:52 39.55050 2.73841 38 ft 15 kts 149°
2026-05-07 18:52 39.54956 2.73915 38 ft 17 kts 148°
2026-05-07 18:52 39.54851 2.73997 38 ft 15 kts 153°
2026-05-07 18:53 39.54798 2.73960 38 ft 8 kts 237°
2026-05-07 18:53 39.54751 2.73953 38 ft 8 kts 169°
2026-05-07 18:53 39.54692 2.73921 37 ft 12 kts 240°
2026-05-07 18:53 39.54639 2.73811 37 ft 16 kts 237°
2026-05-07 18:54 39.54584 2.73696 38 ft 12 kts 236°
2026-05-07 18:54 39.54521 2.73698 38 ft 10 kts 152°
2026-05-07 18:54 39.54497 2.73716 38 ft 0 kts 150°
2026-05-07 18:54 39.54496 2.73717 38 ft 1 kts 150°
2026-05-07 18:55 39.54465 2.73739 37 ft 8 kts 150°
2026-05-07 18:55 39.54422 2.73791 38 ft 5 kts 82°
2026-05-07 18:55 39.54449 2.73851 38 ft 19 kts 60°
2026-05-07 18:55 39.54653 2.74285 38 ft 91 kts 58°
2026-05-07 18:56 39.55090 2.75198 53 ft 144 kts 57°
2026-05-07 18:56 39.55618 2.76289 632 ft 141 kts 56°
2026-05-07 18:56 39.56157 2.77367 1257 ft 145 kts 57°
2026-05-07 18:56 39.56748 2.78515 1713 ft 164 kts 57°
2026-05-07 18:57 39.57421 2.79836 2191 ft 185 kts 57°
2026-05-07 18:57 39.58146 2.81282 2767 ft 200 kts 58°
2026-05-07 18:57 39.58926 2.82866 3307 ft 216 kts 59°
2026-05-07 18:57 39.59753 2.84575 3891 ft 232 kts 59°
2026-05-07 18:58 39.60652 2.86423 4498 ft 251 kts 58°
2026-05-07 18:58 39.61605 2.88366 5269 ft 261 kts 58°
2026-05-07 18:58 39.62577 2.90350 6252 ft 264 kts 58°
2026-05-07 18:58 39.63573 2.92380 7156 ft 267 kts 58°
2026-05-07 18:59 39.64580 2.94417 8032 ft 271 kts 58°
2026-05-07 18:59 39.65619 2.96495 8876 ft 276 kts 58°
2026-05-07 18:59 39.66682 2.98604 9805 ft 279 kts 58°
2026-05-07 18:59 39.67902 3.00574 10429 ft 294 kts 42°
2026-05-07 19:00 39.69766 3.01912 10693 ft 321 kts 18°
2026-05-07 19:00 39.72058 3.02201 11024 ft 343 kts 354°
2026-05-07 19:00 39.74354 3.01270 11725 ft 352 kts 332°
2026-05-07 19:00 39.76264 2.99280 12463 ft 358 kts 310°
2026-05-07 19:01 39.77525 2.96498 13183 ft 363 kts 289°
2026-05-07 19:01 39.78246 2.93306 13919 ft 368 kts 290°
2026-05-07 19:01 39.79301 2.90259 14631 ft 371 kts 296°
2026-05-07 19:01 39.80497 2.87290 15295 ft 376 kts 297°
2026-05-07 19:02 39.81723 2.84285 15963 ft 380 kts 297°
2026-05-07 19:02 39.82949 2.81202 16619 ft 384 kts 296°
2026-05-07 19:02 39.84163 2.78068 17256 ft 389 kts 295°
2026-05-07 19:02 39.85362 2.74924 17896 ft 393 kts 295°
2026-05-07 19:03 39.86587 2.71684 18498 ft 397 kts 294°
2026-05-07 19:03 39.87798 2.68473 19150 ft 398 kts 294°
2026-05-07 19:03 39.89027 2.65210 19805 ft 399 kts 294°
2026-05-07 19:03 39.90245 2.61973 20409 ft 401 kts 293°
2026-05-07 19:04 39.91474 2.58700 21018 ft 403 kts 293°
2026-05-07 19:04 39.92704 2.55424 21609 ft 406 kts 292°
2026-05-07 19:04 39.93958 2.52078 22204 ft 408 kts 292°
2026-05-07 19:04 39.95206 2.48740 22643 ft 411 kts 292°
2026-05-07 19:05 39.96448 2.45417 22903 ft 412 kts 292°
2026-05-07 19:05 39.97711 2.42032 23182 ft 414 kts 292°
2026-05-07 19:05 39.98981 2.38624 23453 ft 417 kts 292°
2026-05-07 19:05 40.00247 2.35224 23703 ft 419 kts 292°
2026-05-07 19:06 40.01507 2.31835 23910 ft 421 kts 292°
2026-05-07 19:06 40.04081 2.24899 24382 ft 426 kts 292°
2026-05-07 19:06 40.05365 2.21437 24879 ft 427 kts 292°
2026-05-07 19:07 40.06670 2.17912 25288 ft 431 kts 292°
2026-05-07 19:07 40.07970 2.14395 25692 ft 434 kts 292°
2026-05-07 19:07 40.09299 2.10814 26093 ft 438 kts 294°
2026-05-07 19:07 40.10976 2.07484 26494 ft 445 kts 308°
2026-05-07 19:08 40.13210 2.04711 26874 ft 453 kts 321°
2026-05-07 19:08 40.15966 2.02595 27224 ft 460 kts 335°
2026-05-07 19:08 40.18998 2.01324 27579 ft 465 kts 347°
2026-05-07 19:08 40.22207 2.00586 27939 ft 468 kts 351°
2026-05-07 19:09 40.25453 1.99966 28280 ft 471 kts 351°
2026-05-07 19:09 40.28694 1.99308 28606 ft 474 kts 350°
2026-05-07 19:09 40.31938 1.98585 28924 ft 477 kts 349°
2026-05-07 19:09 40.35203 1.97810 29226 ft 480 kts 348°
2026-05-07 19:10 40.38516 1.96998 29520 ft 483 kts 348°
2026-05-07 19:10 40.41805 1.96181 29810 ft 486 kts 348°
2026-05-07 19:10 40.45170 1.95342 30090 ft 490 kts 348°
2026-05-07 19:10 40.48500 1.94512 30366 ft 492 kts 348°
2026-05-07 19:11 40.51894 1.93666 30660 ft 494 kts 348°
2026-05-07 19:11 40.55280 1.92821 30936 ft 496 kts 347°
2026-05-07 19:11 40.58649 1.91981 31260 ft 497 kts 347°
2026-05-07 19:11 40.62036 1.91135 31635 ft 497 kts 347°
2026-05-07 19:12 40.65461 1.90280 32024 ft 496 kts 347°
2026-05-07 19:12 40.68822 1.89440 32402 ft 495 kts 347°
2026-05-07 19:12 40.72178 1.88600 32782 ft 494 kts 346°
2026-05-07 19:12 40.75567 1.87750 33156 ft 493 kts 346°
2026-05-07 19:13 40.78925 1.86908 33524 ft 492 kts 346°
2026-05-07 19:13 40.82275 1.86067 33882 ft 491 kts 346°
2026-05-07 19:13 40.85641 1.85220 34202 ft 489 kts 346°
2026-05-07 19:13 40.88964 1.84384 34545 ft 486 kts 345°
2026-05-07 19:14 40.92256 1.83555 34895 ft 483 kts 345°
2026-05-07 19:14 40.95550 1.82725 35237 ft 481 kts 345°
2026-05-07 19:14 40.98848 1.81891 35559 ft 478 kts 345°
2026-05-07 19:14 41.02085 1.81073 35863 ft 476 kts 345°
2026-05-07 19:15 41.05321 1.80253 36159 ft 473 kts 345°
2026-05-07 19:15 41.08540 1.79437 36451 ft 471 kts 345°
2026-05-07 19:15 41.11774 1.78617 36738 ft 469 kts 345°
2026-05-07 19:15 41.14967 1.77806 37003 ft 467 kts 344°
2026-05-07 19:16 41.18133 1.77001 37264 ft 465 kts 344°
2026-05-07 19:16 41.21327 1.76188 37519 ft 463 kts 344°
2026-05-07 19:16 41.24460 1.75391 37763 ft 461 kts 344°
2026-05-07 19:16 41.27606 1.74589 37972 ft 460 kts 344°
2026-05-07 19:17 41.33875 1.72987 37998 ft 458 kts 344°
2026-05-07 19:17 41.40146 1.71381 37989 ft 459 kts 344°
2026-05-07 19:18 41.46410 1.69774 38002 ft 459 kts 344°
2026-05-07 19:18 41.52668 1.68165 37988 ft 459 kts 344°
2026-05-07 19:19 41.58925 1.66555 37984 ft 458 kts 344°
2026-05-07 19:19 41.65185 1.64940 37979 ft 457 kts 344°
2026-05-07 19:20 41.71396 1.63334 37980 ft 457 kts 344°
2026-05-07 19:20 41.77517 1.61269 37969 ft 451 kts 336°
2026-05-07 19:21 41.83438 1.58514 37963 ft 451 kts 336°
2026-05-07 19:21 41.89344 1.55794 37951 ft 451 kts 336°
2026-05-07 19:22 41.95332 1.53079 37944 ft 451 kts 336°
2026-05-07 19:22 42.01252 1.50400 37943 ft 451 kts 336°
2026-05-07 19:23 42.07213 1.47696 37949 ft 452 kts 336°
2026-05-07 19:23 42.13174 1.44985 37959 ft 453 kts 336°
2026-05-07 19:24 42.19173 1.42250 37977 ft 454 kts 336°
2026-05-07 19:24 42.25153 1.39518 37987 ft 454 kts 336°
2026-05-07 19:25 42.31123 1.36787 37997 ft 454 kts 336°
2026-05-07 19:25 42.37089 1.34051 37996 ft 454 kts 336°
2026-05-07 19:26 42.42098 1.31749 37992 ft 455 kts 336°
2026-05-07 19:26 42.49062 1.28544 37996 ft 456 kts 336°
2026-05-07 19:27 42.54063 1.26236 37998 ft 457 kts 337°
2026-05-07 19:27 42.60058 1.23467 37983 ft 455 kts 337°
2026-05-07 19:28 42.66053 1.20690 37977 ft 456 kts 337°
2026-05-07 19:28 42.72077 1.17896 37980 ft 456 kts 337°
2026-05-07 19:29 42.78046 1.15121 37975 ft 455 kts 337°
2026-05-07 19:29 42.84063 1.12316 37973 ft 456 kts 337°
2026-05-07 19:30 42.90045 1.09525 37977 ft 454 kts 337°
2026-05-07 19:30 42.95985 1.06745 37963 ft 454 kts 337°
2026-05-07 19:31 43.01962 1.03944 37958 ft 453 kts 337°
2026-05-07 19:31 43.07925 1.01143 37952 ft 452 kts 337°
2026-05-07 19:32 43.13826 0.98366 37948 ft 451 kts 337°
2026-05-07 19:32 43.19774 0.95560 37938 ft 450 kts 337°
2026-05-07 19:33 43.25673 0.92772 37937 ft 450 kts 337°
2026-05-07 19:33 43.31571 0.89979 37934 ft 449 kts 337°
2026-05-07 19:34 43.37497 0.87167 37927 ft 449 kts 337°
2026-05-07 19:34 43.43383 0.84368 37928 ft 450 kts 337°
2026-05-07 19:35 43.49290 0.81553 37925 ft 450 kts 337°
2026-05-07 19:35 43.55229 0.78716 37930 ft 451 kts 337°
2026-05-07 19:36 43.61141 0.75888 37936 ft 452 kts 337°
2026-05-07 19:36 43.67080 0.73040 37936 ft 453 kts 337°
2026-05-07 19:37 43.73032 0.70180 37940 ft 454 kts 337°
2026-05-07 19:37 43.79018 0.67297 37950 ft 455 kts 337°
2026-05-07 19:38 43.84986 0.64417 37950 ft 455 kts 337°
2026-05-07 19:38 43.90987 0.61515 37953 ft 456 kts 337°
2026-05-07 19:39 43.96933 0.58634 37943 ft 455 kts 337°
2026-05-07 19:39 44.02929 0.55722 37942 ft 455 kts 337°
2026-05-07 19:40 44.08891 0.52821 37940 ft 455 kts 337°
2026-05-07 19:40 44.14847 0.49916 37937 ft 455 kts 337°
2026-05-07 19:41 44.20846 0.46984 37938 ft 455 kts 337°
2026-05-07 19:41 44.26819 0.44058 37941 ft 455 kts 337°
2026-05-07 19:42 44.32767 0.41138 37944 ft 456 kts 337°
2026-05-07 19:42 44.38768 0.38186 37946 ft 456 kts 337°
2026-05-07 19:43 44.44729 0.35248 37949 ft 456 kts 337°
2026-05-07 19:43 44.50711 0.32292 37952 ft 457 kts 337°
2026-05-07 19:44 44.56728 0.29313 37937 ft 457 kts 337°
2026-05-07 19:44 44.62689 0.26355 37941 ft 457 kts 337°
2026-05-07 19:45 44.68701 0.23365 37945 ft 457 kts 337°
2026-05-07 19:45 44.74666 0.20392 37947 ft 457 kts 337°
2026-05-07 19:46 44.80679 0.17389 37941 ft 458 kts 337°
2026-05-07 19:46 44.86685 0.14382 37948 ft 458 kts 337°
2026-05-07 19:47 44.92671 0.11379 37957 ft 458 kts 337°
2026-05-07 19:47 44.98669 0.08363 37959 ft 458 kts 337°
2026-05-07 19:48 45.04687 0.05330 37965 ft 458 kts 337°
2026-05-07 19:48 45.10672 0.02307 37967 ft 458 kts 337°
2026-05-07 19:49 45.16656 -0.00722 37969 ft 458 kts 337°
2026-05-07 19:49 45.22672 -0.03774 37969 ft 457 kts 337°
2026-05-07 19:50 45.28612 -0.06795 37970 ft 457 kts 337°
2026-05-07 19:50 45.34622 -0.09858 37973 ft 457 kts 337°
2026-05-07 19:51 45.40594 -0.12909 37971 ft 456 kts 337°
2026-05-07 19:51 45.46554 -0.15960 37968 ft 456 kts 337°
2026-05-07 19:52 45.52495 -0.19008 37963 ft 455 kts 337°
2026-05-07 19:52 45.58471 -0.22082 37965 ft 455 kts 337°
2026-05-07 19:53 45.64404 -0.25140 37964 ft 455 kts 337°
2026-05-07 19:53 45.70338 -0.28206 37967 ft 454 kts 337°
2026-05-07 19:54 45.76277 -0.31281 37965 ft 454 kts 337°
2026-05-07 19:54 45.82228 -0.34369 37965 ft 454 kts 337°
2026-05-07 19:55 45.88149 -0.37448 37964 ft 454 kts 337°
2026-05-07 19:55 45.94078 -0.40540 37963 ft 454 kts 337°
2026-05-07 19:56 46.00031 -0.43650 37969 ft 454 kts 337°
2026-05-07 19:56 46.05981 -0.46766 37976 ft 454 kts 337°
2026-05-07 19:57 46.11886 -0.49866 37975 ft 455 kts 337°
2026-05-07 19:57 46.17865 -0.53011 37978 ft 455 kts 337°
2026-05-07 19:58 46.23796 -0.56138 37981 ft 455 kts 337°
2026-05-07 19:58 46.29710 -0.59262 37984 ft 455 kts 337°
2026-05-07 19:59 46.35645 -0.62402 37976 ft 455 kts 337°
2026-05-07 19:59 46.41626 -0.65438 37985 ft 457 kts 342°
2026-05-07 20:00 46.47895 -0.67075 37986 ft 460 kts 351°
2026-05-07 20:00 46.54234 -0.68146 37985 ft 460 kts 351°
2026-05-07 20:01 46.60606 -0.69237 37983 ft 460 kts 351°
2026-05-07 20:01 46.66950 -0.70311 37985 ft 460 kts 351°
2026-05-07 20:02 46.73328 -0.71388 37979 ft 460 kts 351°
2026-05-07 20:02 46.79651 -0.72457 37985 ft 460 kts 351°
2026-05-07 20:03 46.86015 -0.73538 37990 ft 460 kts 351°
2026-05-07 20:03 46.92382 -0.74620 37990 ft 460 kts 351°
2026-05-07 20:04 46.98701 -0.75697 37987 ft 460 kts 351°
2026-05-07 20:04 47.05076 -0.76786 37988 ft 460 kts 351°
2026-05-07 20:05 47.11388 -0.77867 37992 ft 459 kts 351°
2026-05-07 20:05 47.17763 -0.78962 37991 ft 459 kts 351°
2026-05-07 20:06 47.24109 -0.80054 37988 ft 459 kts 351°
2026-05-07 20:06 47.30447 -0.81148 37994 ft 459 kts 351°
2026-05-07 20:07 47.36752 -0.82238 37984 ft 459 kts 351°
2026-05-07 20:07 47.43107 -0.83340 37985 ft 458 kts 351°
2026-05-07 20:08 47.49407 -0.84435 37985 ft 458 kts 351°
2026-05-07 20:08 47.55728 -0.85510 37988 ft 459 kts 352°
2026-05-07 20:09 47.62101 -0.86268 37989 ft 459 kts 353°
2026-05-07 20:10 47.71648 -0.87373 37995 ft 459 kts 353°
2026-05-07 20:10 47.78011 -0.88148 37998 ft 459 kts 353°
2026-05-07 20:11 47.84380 -0.88931 37998 ft 459 kts 353°
2026-05-07 20:11 47.90701 -0.89709 37999 ft 458 kts 353°
2026-05-07 20:12 47.97057 -0.90493 38000 ft 458 kts 353°
2026-05-07 20:12 48.03430 -0.91281 37999 ft 458 kts 353°
2026-05-07 20:13 48.09769 -0.92067 37998 ft 458 kts 353°
2026-05-07 20:13 48.16115 -0.92855 38004 ft 458 kts 353°
2026-05-07 20:14 48.22454 -0.93645 38007 ft 458 kts 353°
2026-05-07 20:14 48.28795 -0.94438 38010 ft 458 kts 353°
2026-05-07 20:15 48.35135 -0.95231 38008 ft 458 kts 353°
2026-05-07 20:15 48.41507 -0.96031 38009 ft 458 kts 353°
2026-05-07 20:16 48.47859 -0.96831 38015 ft 458 kts 353°
2026-05-07 20:16 48.54194 -0.97630 38014 ft 458 kts 353°
2026-05-07 20:17 48.60554 -0.98434 38013 ft 458 kts 353°
2026-05-07 20:17 48.66882 -0.99237 38016 ft 459 kts 353°
2026-05-07 20:18 48.73269 -1.00048 38017 ft 459 kts 353°
2026-05-07 20:18 48.79605 -1.00855 38025 ft 459 kts 353°
2026-05-07 20:19 48.85983 -1.01670 38019 ft 459 kts 353°
2026-05-07 20:19 48.92337 -1.02485 38025 ft 459 kts 353°
2026-05-07 20:20 48.98692 -1.03300 38034 ft 459 kts 353°
2026-05-07 20:20 49.05068 -1.04121 38036 ft 459 kts 353°
2026-05-07 20:21 49.11409 -1.04940 38035 ft 459 kts 353°
2026-05-07 20:21 49.17784 -1.05765 38034 ft 459 kts 353°
2026-05-07 20:22 49.24146 -1.06590 38038 ft 459 kts 353°
2026-05-07 20:22 49.30520 -1.07420 38036 ft 458 kts 353°
2026-05-07 20:23 49.36825 -1.08242 38035 ft 458 kts 353°
2026-05-07 20:23 49.43171 -1.09071 38034 ft 457 kts 353°
2026-05-07 20:24 49.49516 -1.09903 38024 ft 457 kts 353°
2026-05-07 20:24 49.55867 -1.09828 38023 ft 461 kts
2026-05-07 20:25 49.61914 -1.06581 38015 ft 464 kts 28°
2026-05-07 20:25 49.67163 -1.00774 38019 ft 465 kts 36°
2026-05-07 20:26 49.72365 -0.94825 37973 ft 463 kts 30°
2026-05-07 20:26 49.75228 -0.92498 37622 ft 460 kts 21°
2026-05-07 20:26 49.78207 -0.90864 37014 ft 459 kts 13°
2026-05-07 20:26 49.81338 -0.89882 36312 ft 457 kts
2026-05-07 20:27 49.84531 -0.89425 35585 ft 458 kts
2026-05-07 20:27 49.87690 -0.88987 34900 ft 459 kts
2026-05-07 20:27 49.90898 -0.88530 34214 ft 460 kts
2026-05-07 20:27 49.94081 -0.88074 33452 ft 460 kts
2026-05-07 20:28 49.97251 -0.87621 32689 ft 460 kts
2026-05-07 20:28 50.00419 -0.87169 31919 ft 461 kts
2026-05-07 20:28 50.02553 -0.86865 31397 ft 461 kts
2026-05-07 20:28 50.06831 -0.86254 30376 ft 462 kts
2026-05-07 20:29 50.10002 -0.85800 29735 ft 458 kts
2026-05-07 20:29 50.12142 -0.85493 29421 ft 453 kts
2026-05-07 20:29 50.16266 -0.84901 28897 ft 451 kts
2026-05-07 20:29 50.18351 -0.84603 28640 ft 452 kts
2026-05-07 20:30 50.22505 -0.84006 28126 ft 449 kts
2026-05-07 20:30 50.24610 -0.83703 27870 ft 446 kts
2026-05-07 20:30 50.27678 -0.83261 27497 ft 443 kts
2026-05-07 20:30 50.30755 -0.82817 27126 ft 441 kts
2026-05-07 20:31 50.33773 -0.82381 26752 ft 439 kts
2026-05-07 20:31 50.36831 -0.81940 26335 ft 437 kts
2026-05-07 20:31 50.39849 -0.81504 25928 ft 434 kts
2026-05-07 20:31 50.42821 -0.81074 25523 ft 431 kts
2026-05-07 20:32 50.45820 -0.80640 25093 ft 428 kts
2026-05-07 20:32 50.48762 -0.80213 24660 ft 426 kts
2026-05-07 20:32 50.51682 -0.79789 24234 ft 423 kts
2026-05-07 20:32 50.54625 -0.79361 23797 ft 420 kts
2026-05-07 20:33 50.57516 -0.78940 23276 ft 418 kts
2026-05-07 20:33 50.60383 -0.78523 22689 ft 414 kts
2026-05-07 20:33 50.63265 -0.78102 22088 ft 411 kts
2026-05-07 20:33 50.66077 -0.77693 21511 ft 407 kts
2026-05-07 20:34 50.68897 -0.77281 20941 ft 403 kts
2026-05-07 20:34 50.71649 -0.76879 20382 ft 400 kts
2026-05-07 20:34 50.74428 -0.76473 19862 ft 395 kts
2026-05-07 20:34 50.77136 -0.76076 19395 ft 391 kts
2026-05-07 20:35 50.79893 -0.75568 19137 ft 407 kts
2026-05-07 20:35 50.82679 -0.74437 19069 ft 428 kts 18°
2026-05-07 20:35 50.85482 -0.72677 19066 ft 431 kts 21°
2026-05-07 20:35 50.88232 -0.70898 19064 ft 430 kts 21°
2026-05-07 20:36 50.91016 -0.69111 19064 ft 430 kts 21°
2026-05-07 20:36 50.93812 -0.67315 19066 ft 430 kts 21°
2026-05-07 20:36 50.96565 -0.65541 19067 ft 430 kts 21°
2026-05-07 20:36 50.99324 -0.63759 19068 ft 430 kts 21°
2026-05-07 20:37 51.02088 -0.61970 19067 ft 430 kts 21°
2026-05-07 20:37 51.04853 -0.60176 19066 ft 430 kts 21°
2026-05-07 20:37 51.07638 -0.58367 19068 ft 430 kts 21°
2026-05-07 20:37 51.10424 -0.56556 19069 ft 430 kts 21°
2026-05-07 20:38 51.13156 -0.54776 19072 ft 430 kts 21°
2026-05-07 20:38 51.15949 -0.52955 19072 ft 430 kts 21°
2026-05-07 20:38 51.18727 -0.51142 19069 ft 430 kts 21°
2026-05-07 20:38 51.21464 -0.49353 19073 ft 429 kts 21°
2026-05-07 20:39 51.24220 -0.47549 19069 ft 430 kts 21°
2026-05-07 20:39 51.27015 -0.45717 19071 ft 430 kts 21°
2026-05-07 20:39 51.29784 -0.43899 19071 ft 430 kts 21°
2026-05-07 20:39 51.32546 -0.42085 19072 ft 430 kts 21°
2026-05-07 20:40 51.35293 -0.40277 19072 ft 430 kts 21°
2026-05-07 20:40 51.38050 -0.38460 19074 ft 430 kts 21°
2026-05-07 20:40 51.40822 -0.36632 19076 ft 430 kts 21°
2026-05-07 20:40 51.43572 -0.34799 19075 ft 430 kts 23°
2026-05-07 20:41 51.46291 -0.32723 19074 ft 430 kts 25°
2026-05-07 20:41 51.48973 -0.30671 19073 ft 430 kts 25°
2026-05-07 20:41 51.51683 -0.28601 19072 ft 430 kts 25°
2026-05-07 20:41 51.54390 -0.26532 18853 ft 427 kts 25°
2026-05-07 20:42 51.57064 -0.24485 18369 ft 425 kts 25°
2026-05-07 20:42 51.59689 -0.22471 17716 ft 421 kts 25°
2026-05-07 20:42 51.62339 -0.20434 17007 ft 417 kts 25°
2026-05-07 20:42 51.64930 -0.18441 16392 ft 412 kts 25°
2026-05-07 20:43 51.67510 -0.16453 16138 ft 406 kts 25°
2026-05-07 20:43 51.69991 -0.14537 16081 ft 389 kts 25°
2026-05-07 20:43 51.72386 -0.12685 16074 ft 371 kts 25°
2026-05-07 20:43 51.74616 -0.10608 16043 ft 368 kts 35°
2026-05-07 20:44 51.76556 -0.08036 15945 ft 357 kts 45°
2026-05-07 20:44 51.78243 -0.05196 15773 ft 339 kts 47°
2026-05-07 20:44 51.79839 -0.02506 15652 ft 327 kts 46°
2026-05-07 20:44 51.81411 0.00130 15327 ft 324 kts 46°
2026-05-07 20:45 51.82959 0.02726 14938 ft 322 kts 46°
2026-05-07 20:45 51.84504 0.05321 14548 ft 320 kts 47°
2026-05-07 20:45 51.86054 0.07932 14174 ft 318 kts 47°
2026-05-07 20:45 51.87577 0.10502 13770 ft 317 kts 47°
2026-05-07 20:46 51.89202 0.12882 13354 ft 314 kts 32°
2026-05-07 20:46 51.91230 0.14148 12926 ft 311 kts
2026-05-07 20:46 51.93353 0.13978 12497 ft 306 kts 342°
2026-05-07 20:46 51.95213 0.12435 12056 ft 301 kts 317°
2026-05-07 20:47 51.96666 0.10057 11649 ft 298 kts 311°
2026-05-07 20:47 51.98029 0.07542 11240 ft 294 kts 301°
2026-05-07 20:47 51.98769 0.04514 10833 ft 288 kts 276°
2026-05-07 20:47 51.98907 0.01301 10438 ft 285 kts 271°
2026-05-07 20:48 51.98998 -0.01913 10052 ft 284 kts 271°
2026-05-07 20:48 51.99084 -0.05082 9653 ft 282 kts 271°
2026-05-07 20:48 51.99163 -0.08234 9244 ft 279 kts 271°
2026-05-07 20:48 51.99235 -0.11360 8852 ft 277 kts 271°
2026-05-07 20:49 51.99303 -0.14486 8451 ft 275 kts 271°
2026-05-07 20:49 51.99366 -0.17560 8046 ft 274 kts 271°
2026-05-07 20:49 51.99422 -0.20662 7645 ft 272 kts 271°
2026-05-07 20:49 51.99471 -0.23723 7270 ft 271 kts 270°
2026-05-07 20:50 51.99154 -0.26705 6863 ft 269 kts 248°
2026-05-07 20:50 51.98410 -0.29459 6480 ft 268 kts 246°
2026-05-07 20:50 51.97644 -0.32226 6119 ft 265 kts 245°
2026-05-07 20:50 51.96903 -0.34920 6015 ft 265 kts 245°
2026-05-07 20:51 51.96151 -0.37660 6003 ft 268 kts 246°
2026-05-07 20:51 51.95392 -0.40435 6000 ft 267 kts 246°
2026-05-07 20:51 51.94634 -0.43210 5936 ft 269 kts 246°
2026-05-07 20:51 51.93881 -0.45975 5687 ft 267 kts 245°
2026-05-07 20:52 51.93146 -0.48690 5430 ft 264 kts 245°
2026-05-07 20:52 51.92409 -0.51431 5175 ft 265 kts 245°
2026-05-07 20:52 51.91686 -0.54143 4920 ft 261 kts 246°
2026-05-07 20:52 51.90985 -0.56803 4653 ft 249 kts 245°
2026-05-07 20:53 51.90340 -0.59269 4557 ft 230 kts 245°
2026-05-07 20:53 51.89527 -0.61349 4457 ft 208 kts 226°
2026-05-07 20:53 51.88600 -0.62977 4431 ft 186 kts 225°
2026-05-07 20:53 51.87743 -0.64469 4357 ft 186 kts 225°
2026-05-07 20:54 51.86843 -0.66033 4321 ft 187 kts 225°
2026-05-07 20:54 51.85973 -0.67545 4136 ft 183 kts 226°
2026-05-07 20:54 51.85114 -0.69040 4002 ft 183 kts 226°
2026-05-07 20:54 51.84148 -0.70363 3991 ft 184 kts 202°
2026-05-07 20:55 51.82894 -0.70501 3992 ft 184 kts 163°
2026-05-07 20:55 51.81892 -0.69291 3987 ft 186 kts 122°
2026-05-07 20:55 51.81735 -0.67236 3997 ft 191 kts 73°
2026-05-07 20:55 51.82300 -0.65300 3951 ft 193 kts 64°
2026-05-07 20:56 51.82835 -0.63324 3740 ft 193 kts 71°
2026-05-07 20:56 51.83250 -0.61264 3485 ft 188 kts 75°
2026-05-07 20:56 51.83582 -0.59298 3234 ft 180 kts 76°
2026-05-07 20:56 51.83917 -0.57376 2987 ft 172 kts 77°
2026-05-07 20:57 51.84239 -0.55504 2761 ft 175 kts 77°
2026-05-07 20:57 51.84562 -0.53636 2514 ft 172 kts 77°
2026-05-07 20:57 51.84884 -0.51779 2286 ft 171 kts 77°
2026-05-07 20:57 51.85202 -0.49940 2044 ft 165 kts 77°
2026-05-07 20:58 51.85495 -0.48249 1842 ft 148 kts 79°
2026-05-07 20:58 51.85757 -0.46730 1638 ft 135 kts 79°
2026-05-07 20:58 51.86006 -0.45276 1456 ft 138 kts 78°
2026-05-07 20:58 51.86262 -0.43805 1253 ft 133 kts 78°
2026-05-07 20:59 51.86508 -0.42373 1070 ft 132 kts 77°
2026-05-07 20:59 51.86755 -0.40944 884 ft 130 kts 77°
2026-05-07 20:59 51.86996 -0.39538 682 ft 130 kts 77°
2026-05-07 20:59 51.87238 -0.38133 562 ft 130 kts 77°
2026-05-07 21:00 51.87457 -0.36887 521 ft 82 kts 74°
2026-05-07 21:00 51.87575 -0.36200 519 ft 56 kts 73°
2026-05-07 21:00 51.87644 -0.35879 517 ft 0 kts 30°
2026-05-07 21:00 51.87651 -0.35889 517 ft 5 kts 320°
2026-05-07 21:01 51.87690 -0.35924 518 ft 8 kts 342°
2026-05-07 21:01 51.87752 -0.35958 518 ft 11 kts 328°
2026-05-07 21:01 51.87785 -0.36070 519 ft 12 kts 264°
2026-05-07 21:01 51.87763 -0.36208 519 ft 13 kts 255°
2026-05-07 21:02 51.87738 -0.36361 519 ft 15 kts 253°
2026-05-07 21:02 51.87705 -0.36541 520 ft 16 kts 253°
2026-05-07 21:02 51.87674 -0.36725 520 ft 18 kts 255°
2026-05-07 21:02 51.87637 -0.36936 521 ft 20 kts 255°
2026-05-07 21:03 51.87606 -0.37123 521 ft 16 kts 255°
2026-05-07 21:03 51.87581 -0.37309 521 ft 15 kts 268°
2026-05-07 21:03 51.87609 -0.37429 521 ft 8 kts 308°
2026-05-07 21:03 51.87660 -0.37486 521 ft 10 kts 327°
2026-05-07 21:04 51.87705 -0.37575 522 ft 12 kts 299°
2026-05-07 21:04 51.87744 -0.37710 522 ft 15 kts 295°
2026-05-07 21:04 51.87794 -0.37878 522 ft 18 kts 296°
2026-05-07 21:04 51.87886 -0.38008 522 ft 18 kts 344°
2026-05-07 21:05 51.87983 -0.37977 522 ft 11 kts 32°
2026-05-07 21:05 51.88011 -0.37943 522 ft 0 kts 38°
2026-05-07 21:05 51.88014 -0.37916 522 ft 6 kts 107°
2026-05-07 21:05 51.87993 -0.37868 522 ft 3 kts 128°
2026-05-07 21:06 51.87988 -0.37858 522 ft 0 kts 127°